Burlington, WA
on Saturday, November 17, 2012

Saturday
Previous Day Next Day
Daily Summary
 ActualAverage (KBLI)Record (KBLI)
Temperature
Mean Temperature °F 43°F  
Max Temperature 60°F 49°F 65°F (1995)
Min Temperature 44°F 37°F 13°F (1955)
Degree Days
Heating Degree Days 13 22  
Month to date heating degree days 345  
Cooling Degree Days 0 0  
Month to date cooling degree days 0  
Year to date cooling degree days 42  
Growing Degree Days2 (Base °F )  
Moisture
Dew Point 46°F   
Average Humidity 91    
Maximum Humidity 100    
Minimum Humidity 55    
Precipitation
Precipitation 0.43 in 0.20 in 1.45 in (1959)
Month to date precipitation 3.35  
Year to date precipitation 29.16  
Wind
Wind Speed 11 mph   
Max Wind Speed 17 mph   
Max Gust Speed 23 mph   
Visibility 9 miles   
Events     

Key: T is trace of precipitation, MM is missing value
Source: NWS Daily Summary
Time(PST)TemperatureDew PointHumidity Pressure Visibility Wind DirectionWind SpeedGust SpeedPrecipitationEvents Conditions
12:35 AM 53.6°F 48.2°F 82% 29.67 in 10.0 miles ESE 12.7 mph - 0.00 in   Mostly Cloudy
12:55 AM 53.6°F 48.2°F 82% 29.67 in 10.0 miles ESE 13.8 mph 21.9 mph 0.00 in   Mostly Cloudy
1:15 AM 53.6°F 48.2°F 82% 29.65 in 10.0 miles ESE 17.3 mph 21.9 mph 0.00 in   Mostly Cloudy
1:35 AM 53.6°F 48.2°F 82% 29.65 in 10.0 miles ESE 15.0 mph 19.6 mph 0.00 in   Mostly Cloudy
1:55 AM 53.6°F 48.2°F 82% 29.64 in 10.0 miles East 15.0 mph 23.0 mph 0.00 in   Mostly Cloudy
2:15 AM 53.6°F 48.2°F 82% 29.64 in 10.0 miles ESE 12.7 mph 20.7 mph 0.00 in   Mostly Cloudy
2:35 AM 51.8°F 46.4°F 82% 29.63 in 10.0 miles SE 8.1 mph - 0.00 in   Mostly Cloudy
2:55 AM 51.8°F 48.2°F 88% 29.62 in 9.0 miles East 12.7 mph 16.1 mph 0.00 in   Mostly Cloudy
3:15 AM 48.2°F 48.2°F 100% 29.61 in 10.0 miles East 11.5 mph - 0.00 in   Mostly Cloudy
3:35 AM 48.2°F 48.2°F 100% 29.61 in 10.0 miles East 8.1 mph - 0.00 in   Mostly Cloudy
3:55 AM 50.0°F 48.2°F 94% 29.59 in 9.0 miles ESE 10.4 mph 19.6 mph 0.01 in   Overcast
4:15 AM 50.0°F 48.2°F 94% 29.58 in 10.0 miles East 9.2 mph - 0.00 in   Overcast
4:35 AM 48.2°F 48.2°F 100% 29.58 in 10.0 miles East 10.4 mph - 0.00 in   Mostly Cloudy
4:55 AM 48.2°F 48.2°F 100% 29.57 in 10.0 miles East 8.1 mph - 0.00 in   Overcast
5:15 AM 48.2°F 48.2°F 100% 29.57 in 6.0 miles East 4.6 mph - 0.01 in   Overcast
5:35 AM 48.2°F 48.2°F 100% 29.56 in 9.0 miles South 5.8 mph - 0.02 in   Overcast
5:55 AM 48.2°F 48.2°F 100% 29.54 in 10.0 miles South 5.8 mph - 0.02 in   Mostly Cloudy
6:15 AM 48.2°F 48.2°F 100% 29.54 in 10.0 miles SSE 3.5 mph - 0.00 in   Overcast
6:35 AM 48.2°F 48.2°F 100% 29.54 in 10.0 miles SW 4.6 mph - 0.00 in   Overcast
6:55 AM 48.2°F 48.2°F 100% 29.54 in 9.0 miles East 4.6 mph - 0.00 in   Mostly Cloudy
7:15 AM 48.2°F 48.2°F 100% 29.53 in 9.0 miles SE 4.6 mph - 0.01 in   Overcast
7:35 AM 48.2°F 48.2°F 100% 29.53 in 10.0 miles Calm Calm - 0.01 in   Overcast
7:55 AM 46.4°F 46.4°F 100% 29.53 in 10.0 miles ESE 3.5 mph - 0.01 in   Overcast
8:15 AM 48.2°F 48.2°F 100% 29.51 in 10.0 miles East 5.8 mph - 0.00 in   Overcast
8:35 AM 48.2°F 48.2°F 100% 29.50 in 9.0 miles ESE 5.8 mph - 0.00 in   Overcast
9:55 AM 57.2°F 46.4°F 67% 29.45 in 10.0 miles SE 13.8 mph 18.4 mph 0.00 in   Mostly Cloudy
10:15 AM 60.8°F 46.4°F 59% 29.45 in 8.0 miles SSE 15.0 mph 20.7 mph 0.00 in   Overcast
10:35 AM 60.8°F 44.6°F 55% 29.46 in 9.0 miles SSE 13.8 mph 21.9 mph 0.00 in   Overcast
10:55 AM 60.8°F 44.6°F 55% 29.45 in 9.0 miles SSE 15.0 mph 19.6 mph 0.00 in   Overcast
11:15 AM 60.8°F 44.6°F 55% 29.45 in 10.0 miles SE 13.8 mph 21.9 mph 0.00 in   Mostly Cloudy
11:35 AM 57.2°F 46.4°F 67% 29.45 in 8.0 miles SSW 8.1 mph 18.4 mph 0.00 in   Mostly Cloudy
12:15 PM 51.8°F 48.2°F 88% 29.47 in 10.0 miles SW 10.4 mph 19.6 mph 0.00 in   Overcast
12:35 PM 51.8°F 48.2°F 88% 29.48 in 10.0 miles WNW 8.1 mph - 0.00 in   Overcast
12:55 PM 48.2°F 46.4°F 93% 29.50 in 10.0 miles West 10.4 mph 16.1 mph 0.00 in   Overcast
1:15 PM 48.2°F 46.4°F 93% 29.51 in 8.0 miles WNW 10.4 mph 16.1 mph 0.00 in   Overcast
1:35 PM 46.4°F 46.4°F 100% 29.51 in 2.5 miles WNW 9.2 mph - 0.02 in   Overcast
1:55 PM 46.4°F 46.4°F 100% 29.52 in 2.5 miles WNW 5.8 mph - 0.06 in   Overcast
2:15 PM 46.4°F 46.4°F 100% 29.53 in 3.0 miles North 3.5 mph - 0.02 in   Overcast
2:35 PM 46.4°F 46.4°F 100% 29.54 in 3.0 miles Calm Calm - 0.06 in   Overcast
2:55 PM 46.4°F 46.4°F 100% 29.54 in 2.5 miles Calm Calm - 0.10 in   Mostly Cloudy
3:15 PM 44.6°F 44.6°F 100% 29.54 in 2.5 miles East 6.9 mph - 0.04 in   Overcast
3:35 PM 44.6°F 44.6°F 100% 29.55 in 4.0 miles ENE 8.1 mph - 0.08 in   Overcast
3:55 PM 44.6°F 44.6°F 100% 29.57 in 4.0 miles ESE 5.8 mph - 0.12 in   Overcast
4:15 PM 46.4°F 46.4°F 100% 29.57 in 5.0 miles SSE 11.5 mph 17.3 mph 0.05 in   Overcast
4:35 PM 44.6°F 44.6°F 100% 29.58 in 7.0 miles South 9.2 mph 17.3 mph 0.08 in   Overcast
4:55 PM 44.6°F 44.6°F 100% 29.59 in 5.0 miles SSE 6.9 mph - 0.10 in   Overcast
5:15 PM 44.6°F 44.6°F 100% 29.58 in 8.0 miles SSE 5.8 mph - 0.01 in   Overcast
5:35 PM 44.6°F 44.6°F 100% 29.58 in 10.0 miles SE 11.5 mph - 0.01 in   Overcast
5:55 PM 44.6°F 44.6°F 100% 29.59 in 10.0 miles SSE 15.0 mph 23.0 mph 0.01 in   Overcast
6:15 PM 44.6°F 44.6°F 100% 29.59 in 10.0 miles SSE 12.7 mph 20.7 mph 0.00 in   Overcast
6:35 PM 44.6°F 44.6°F 100% 29.60 in 10.0 miles SSE 13.8 mph 20.7 mph 0.00 in   Overcast
6:55 PM 44.6°F 42.8°F 93% 29.59 in 10.0 miles SSE 13.8 mph 23.0 mph 0.00 in   Overcast
7:15 PM 44.6°F 42.8°F 93% 29.60 in 10.0 miles SSE 12.7 mph 23.0 mph 0.00 in   Overcast
7:35 PM 44.6°F 42.8°F 93% 29.61 in 10.0 miles SSE 15.0 mph - 0.00 in   Overcast
7:55 PM 44.6°F 42.8°F 93% 29.61 in 10.0 miles SSE 11.5 mph 20.7 mph 0.00 in   Scattered Clouds
8:15 PM 44.6°F 42.8°F 93% 29.60 in 10.0 miles SE 13.8 mph 19.6 mph 0.00 in   Partly Cloudy
8:35 PM 44.6°F 42.8°F 93% 29.60 in 10.0 miles SSE 13.8 mph 21.9 mph 0.00 in   Scattered Clouds
8:55 PM 46.4°F 42.8°F 87% 29.61 in 10.0 miles SSE 9.2 mph 21.9 mph 0.00 in   Scattered Clouds
9:15 PM 46.4°F 42.8°F 87% 29.63 in 10.0 miles SSE 13.8 mph 23.0 mph 0.00 in   Scattered Clouds
9:35 PM 46.4°F 42.8°F 87% 29.64 in 10.0 miles SSE 13.8 mph 20.7 mph 0.00 in   Mostly Cloudy
9:55 PM 46.4°F 42.8°F 87% 29.64 in 10.0 miles SSE 15.0 mph 19.6 mph 0.00 in   Overcast
10:15 PM 46.4°F 42.8°F 87% 29.65 in 10.0 miles South 10.4 mph 20.7 mph 0.00 in   Overcast
10:35 PM 46.4°F 42.8°F 87% 29.65 in 10.0 miles South 11.5 mph 19.6 mph 0.00 in   Overcast
10:55 PM 46.4°F 42.8°F 87% 29.65 in 10.0 miles South 12.7 mph 19.6 mph 0.00 in   Overcast
11:15 PM 46.4°F 42.8°F 87% 29.66 in 10.0 miles South 15.0 mph 19.6 mph 0.00 in   Overcast
11:35 PM 46.4°F 42.8°F 87% 29.67 in 10.0 miles SSE 10.4 mph 18.4 mph 0.00 in   Overcast
11:55 PM 46.4°F 42.8°F 87% 29.68 in 10.0 miles SSE 11.5 mph 19.6 mph 0.00 in   Overcast
Moon Phase
Nov. 17 Nov. 20 Nov. 28 Dec. 06 Dec. 13
Sunrise:07:21 AM (PST) Moon Rise:11:10 AM (PST)11/17
Sunset:04:27 PM (PST) Moon Set:08:45 PM (PST)11/17

Copyright © 2014 The Weather Underground, Inc.